Location: Casilda
(33.0440°S, 61.1680°W)
Time: 16:05:30
(UTC-03:00)

ISS - Pass Details

Date: 09 December 2017
Orbit: 402 x 407 km, 51.6° (Epoch: 11 December)

Event Time Altitude Azimuth Distance (km) Brightness Sun altitude
Exits shadow 02:37:00 16° 145° (SE) 1,169 -0.7 -29.2°
Drops below altitude 10° 02:37:47 10° 142° (SE) 1,480 -0.1 -29.2°
Sets 02:39:55 0° 137° (SE) 2,347 1.2 -29.0°
